Skip Page Navigation
NASA JPL Caltech
NASA Logo - Jet Propulsion Laboratory + View the NASA Portal
+ Near-Earth Object (NEO) Program
Search JPL
JPL Home Earth Solar System Stars & Galaxies Technology
JPL Solar System Dynamics
BODIES ORBITS EPHEMERIDES TOOLS PHYSICAL DATA DISCOVERY FAQ SITE MAP
JPL Small-Body Database Browser
Search: [ help ]  
170007 Strateva (2002 TV323)
Classification: Main-belt Asteroid          SPK-ID: 2170007
Ephemeris | Orbit Diagram | Orbital Elements | Physical Parameters | Discovery Circumstances ]

[ show orbit diagram ]
Orbital Elements at Epoch 2457000.5 (2014-Dec-09.0) TDB
Reference: JPL 7 (heliocentric ecliptic J2000)
 Element Value Uncertainty (1-sigma)   Units 
e .1560168358348556 5.7861e-08  
a 2.689483334048988 2.2126e-08 AU
q 2.269878654240087 1.5855e-07 AU
i 9.249313941439414 1.054e-05 deg
node 181.5204451167702 3.9288e-05 deg
peri 98.67001782336436 5.7328e-05 deg
M 340.3840672755349 3.6909e-05 deg
tp 2457088.282546579661
(2015-Mar-06.78254658)
0.00016511 JED
period 1611.022897181128
4.41
1.988e-05
5.443e-08
d
yr
n .223460511101305 2.7576e-09 deg/d
Q 3.109088013857888 2.5578e-08 AU
  Orbit Determination Parameters
   # obs. used (total)      168  
   data-arc span      5200 days (14.24 yr)  
   first obs. used      2001-05-24  
   last obs. used      2015-08-19  
   planetary ephem.      DE431  
   SB-pert. ephem.      SB431-BIG16  
   condition code      0  
   fit RMS      .60916  
   data source      ORB  
   producer      Otto Matic  
   solution date      2015-Sep-02 18:28:41  

Additional Information
 Earth MOID = 1.27779 AU 
 T_jup = 3.337 
[ show covariance matrix ]

Ephemeris | Orbit Diagram | Orbital Elements | Physical Parameters | Discovery Circumstances ]

Physical Parameter Table
Parameter Symbol Value Units Sigma Reference Notes
absolute magnitude H 16.4 mag n/a MPO211247  

170007 Strateva           Discovered 2002 Oct. 5 by the Sloan Digital Sky Survey at Apache Point.
Iskra Strateva (b. 1975) is a Bulgarian-born, former American astronomer and a contributor to the Sloan Digital Sky Survey, known for her work on the colors of galaxies and double-peaked emission-line active galaxies, and later as a teacher of physics and mathematics in Switzerland.
NOTE: some special characters may not display properly (any characters within {} are an attempt to place the proper accent above a character)
Reference: 20130127/MPCPages.arcLast Updated: 2013-01-31

Alternate Designations
 2002 TV323 = 2005 ES191 
Ephemeris | Orbit Diagram | Orbital Elements | Physical Parameters | Discovery Circumstances ]
ABOUT SSD CREDITS/AWARDS PRIVACY/COPYRIGHT GLOSSARY LINKS
FirstGov 2015-Sep-05 14:18 UT
(server date/time)  
NASA Home Page
Site Manager:   Ryan S. Park
Webmaster  Alan B. Chamberlin